GECAM-A (47234 NORAD) Tracking and Keplerian Element Data

This shows tracking and keplerian element data for the satellite.

Feedback or suggestion? Click here.




ElementValue
Catalog47234
NameGECAM-A
Epoch Orbit1219
Epoch Day60.77962596
Epoch Year2021
RAAN216.3772
Inclination28.9982
Eccentricity0.0012776
Argument of Perigee53.3614
Mean Anonmoly306.8154
Mean Motion14.90687137
Decay Rate3.95E-06
L11 47234U 20094A 21060.77962596 .00000395 00000-0 25566-4 0 9990
L22 47234 28.9982 216.3772 0012776 53.3614 306.8154 14.90687137 12199

Live tracking and technical data element details for GECAM-A (NORAD 47234). GECAM-A can be tracked NOW for your location showing map with azimuth and elevation plus other details from your city location.

Track the satellite on the map from your city or location and see movement details for azimuth, elevation, latitude, longitude, range, height, and movement on the map or in text.







IsCatalogInMostPopularTable: catalog: 47234, numindb: 31
Update: records affected: 1



GetName: 47234 GECAM-A

Hit Count: updated at: Tue, 02 Mar 2021 14:29:56 GMT